Location: Cadenet
(43.7345°N, 5.3750°E)
Time: 09:27:30
(UTC+00:00)

GEOS 3 Rocket - Pass Details

Date: 18 February 2020
Orbit: 777 x 842 km, 115.0° (Epoch: 03 April)

Event Time Altitude Azimuth Distance (km) Brightness Sun altitude
Rises 03:48:52 0° 40° (NE) 3,372 7.6 -30.3°
Reaches altitude 10° 03:51:14 10° 45° (NE) 2,442 6.8 -29.9°
Maximum altitude 03:56:27 55° 123° (ESE) 999 4.2 -29.0°
Enters shadow 03:57:22 49° 159° (SSE) 1,073 4.2 -28.8°
